Theta_e
274 273 272 272 273 273 273 272 272 273 272 272 272 272 273 274 276 278 281 284 290 290 293 294 294 296 296 306 311 310 309 309 305 291 295 305 307 309 306 313 309 313 311
272 272 271 271 271 271 271 272 272 271 272 271 271 272 271 272 273 276 279 280 290 289 290 291 293 297 294 307 309 309 308 309 305 295 296 299 305 306 309 310 307 311 311
270 270 269 269 270 270 271 271 271 271 270 270 270 270 270 272 272 275 278 280 281 290 290 289 289 294 293 305 307 308 309 308 305 300 298 300 294 303 303 297 300 301 303
269 268 268 268 269 269 270 270 269 269 269 269 269 270 270 271 272 274 277 278 281 286 290 290 289 291 294 294 306 305 305 304 301 301 300 299 298 296 303 299 295 296 296
267 267 267 268 269 269 269 268 268 268 268 269 269 269 270 270 272 273 276 277 279 282 289 290 290 289 292 292 305 304 303 299 300 299 298 299 298 293 299 301 301 295 290
266 266 267 267 268 267 267 266 266 267 267 267 267 268 268 270 273 275 278 278 279 281 284 288 290 288 291 294 302 303 304 296 296 297 297 296 295 296 299 298 296 294 292
266 265 265 266 264 265 265 264 264 264 265 266 266 267 267 269 273 275 277 278 279 281 283 287 287 289 288 291 301 301 302 300 301 301 295 299 295 298 299 295 295 296 296
264 263 264 263 263 263 262 262 263 264 265 266 266 267 267 269 273 275 276 278 279 280 282 284 287 287 288 289 300 302 302 300 301 303 300 301 301 299 298 298 293 289 289
263 263 262 262 260 260 259 260 263 264 265 265 268 268 267 267 272 274 276 276 279 280 282 284 286 287 289 291 295 299 299 299 301 301 301 301 300 299 299 294 290 291 286
261 261 261 260 258 258 260 261 263 264 265 267 267 269 271 269 272 275 276 275 277 279 280 286 287 288 290 291 294 299 295 297 296 292 296 298 298 297 296 297 294 293 291
260 260 259 258 257 260 261 261 262 263 264 264 267 269 272 272 270 275 277 277 278 280 281 286 287 290 291 292 294 298 298 296 294 293 294 294 295 294 296 297 296 297 293
259 256 255 256 260 261 259 260 261 261 262 264 265 267 271 274 277 276 278 280 282 282 284 287 287 290 292 293 295 299 298 295 295 293 293 293 293 293 295 296 294 298 299
253 252 255 258 260 260 259 260 260 261 261 262 265 266 267 272 272 278 283 284 285 285 286 288 289 290 293 295 296 297 292 295 294 292 292 293 295 295 294 293 291 289 288
251 254 257 258 258 259 260 261 260 260 260 263 263 263 265 268 269 272 275 278 283 285 286 287 288 291 292 296 295 296 296 297 295 294 294 295 294 292 291 292 290 290 290
253 256 256 257 257 259 260 260 261 262 264 263 263 263 265 264 266 274 275 275 278 285 286 287 287 289 291 295 296 296 296 296 294 295 295 291 290 291 291 291 291 289 290
252 254 255 256 257 258 258 258 263 265 266 266 267 268 265 268 272 273 275 277 280 285 285 286 287 290 292 294 294 294 295 294 295 295 294 290 290 289 289 289 289 288 289
249 253 255 256 256 256 257 256 256 259 264 264 265 268 267 268 270 271 272 276 283 285 285 287 289 291 293 294 294 293 293 294 295 295 293 291 291 290 289 288 288 287 288
248 253 253 254 255 255 256 256 256 255 255 256 260 266 265 266 267 268 268 266 263 266 267 268 281 290 292 293 293 293 293 293 294 294 293 291 291 290 288 288 288 287 287
251 252 252 252 254 255 256 256 255 255 255 255 256 261 260 263 264 264 264 258 258 259 262 264 266 267 271 286 293 293 293 292 293 292 292 290 290 290 289 289 288 288 288
249 253 252 251 252 253 254 254 254 254 254 254 254 256 258 256 255 255 256 257 257 257 260 263 265 265 266 267 272 289 291 290 291 291 291 290 290 291 290 289 288 288 288
247 249 251 250 251 252 253 253 254 253 253 253 253 256 264 254 253 254 255 255 256 257 258 262 263 265 265 265 267 271 285 290 290 290 290 290 290 289 291 290 289 289 289
245 244 246 246 250 251 252 252 253 253 253 252 253 254 260 254 254 253 254 255 256 258 259 262 262 264 266 265 265 266 268 271 279 288 290 289 289 290 290 289 289 289 288
247 248 248 249 249 250 251 251 252 252 252 252 252 252 253 252 253 253 254 255 256 258 259 262 262 263 266 267 267 266 266 267 269 274 287 288 288 288 289 288 287 286 286
246 246 247 246 247 248 249 250 251 251 251 252 252 252 252 252 252 253 253 254 256 258 259 260 263 263 263 266 268 267 266 267 269 271 276 279 283 285 286 286 286 287 287
241 244 244 244 241 245 247 249 250 250 250 251 251 251 252 252 252 252 253 254 255 257 258 259 261 264 264 264 266 268 267 266 266 268 270 271 272 273 275 276 280 283 285
243 245 242 243 244 243 245 247 247 249 249 250 250 250 251 251 252 252 252 254 255 256 257 259 260 263 264 265 265 267 269 268 265 266 267 267 267 268 269 270 271 272 273
Wind_Speed
12 13 13 14 14 15 14 17 17 18 18 19 18 18 17 16 17 17 18 19 13 8 10 13 11 15 13 18 16 17 16 14 17 2 3 10 13 17 14 14 13 16 13
13 14 15 15 16 16 16 18 18 19 18 18 18 18 17 17 17 17 18 15 14 12 10 12 13 9 20 16 14 21 18 18 16 15 6 8 13 18 19 17 12 12 13
13 14 15 16 16 17 18 19 19 19 19 19 19 18 18 16 17 18 17 17 17 10 10 10 12 12 17 10 14 17 16 14 14 14 11 10 4 10 14 7 10 7 7
13 14 16 16 17 18 19 19 19 18 19 19 18 18 18 16 18 19 16 17 17 17 12 10 10 14 13 17 18 18 16 14 15 15 14 15 13 9 15 15 9 5 7
14 15 15 17 17 18 18 19 18 18 17 19 19 18 18 16 13 16 15 15 16 17 15 11 10 13 21 29 15 17 18 16 16 15 13 13 13 10 17 12 13 8 2
14 15 17 18 18 19 19 19 19 19 17 18 18 18 18 14 24 27 25 15 15 15 17 12 10 15 18 28 24 23 23 20 19 15 13 17 17 18 13 15 13 12 7
14 15 16 17 19 19 19 19 19 18 16 18 18 17 18 17 27 28 29 17 15 16 16 14 10 8 12 16 21 27 25 31 31 21 19 21 19 22 20 18 17 15 10
15 15 16 18 19 19 19 19 20 17 17 17 18 18 18 16 27 27 29 19 16 17 17 16 13 13 13 13 15 24 22 23 25 21 25 23 21 21 21 19 16 8 7
15 17 17 18 19 19 19 20 19 18 18 17 17 17 17 18 28 28 24 16 15 16 15 18 17 15 19 24 14 20 20 20 24 26 28 31 31 32 25 16 14 15 5
15 18 17 17 17 18 19 19 19 17 19 16 18 18 20 18 28 29 24 13 16 13 15 18 19 16 21 23 15 20 20 18 17 10 12 19 27 26 31 22 19 18 10
16 17 17 16 17 16 18 17 17 18 18 16 18 16 19 15 19 29 28 16 12 11 12 11 9 20 23 26 24 20 24 17 19 16 13 12 15 18 16 16 20 20 15
16 17 16 16 13 13 18 16 16 16 17 16 16 15 12 15 18 25 29 29 23 14 12 10 9 18 24 26 21 25 29 24 16 14 15 14 15 15 16 15 15 13 14
15 15 14 15 14 14 16 16 13 14 13 14 13 13 13 12 12 27 20 28 30 18 11 13 19 21 24 24 29 27 27 17 15 15 16 16 16 15 14 12 11 6 4
14 14 13 14 16 14 12 12 11 11 13 13 13 14 15 13 13 13 12 12 17 18 17 14 16 18 20 17 20 21 16 16 17 15 15 13 12 13 13 13 11 12 9
12 12 12 11 13 14 12 12 12 12 16 14 12 14 15 16 14 27 23 16 13 12 11 10 10 11 13 12 14 16 15 15 15 15 14 14 13 14 13 12 11 13 12
10 9 10 10 11 12 13 13 20 25 27 26 27 24 14 26 31 33 34 34 32 27 11 9 11 12 12 12 13 13 14 16 15 15 14 15 15 15 14 13 11 14 15
7 9 9 11 11 12 12 13 16 18 25 27 31 31 31 29 29 31 33 28 13 12 10 9 10 11 11 11 13 13 15 13 15 13 14 16 15 15 18 14 14 14 13
6 10 8 9 10 11 12 12 11 13 16 16 24 30 32 31 30 31 31 21 14 15 9 10 6 6 9 11 12 12 13 13 14 13 14 15 15 16 16 16 16 16 15
7 6 8 8 8 11 10 11 11 12 13 13 15 22 26 34 31 33 35 16 13 13 12 11 10 9 8 3 10 11 13 13 14 12 13 14 15 15 16 15 16 20 19
4 10 9 7 8 9 10 11 12 12 13 13 14 15 18 19 19 20 17 15 14 13 13 12 11 10 10 9 8 4 10 12 13 12 12 14 15 16 16 16 15 16 15
3 5 9 6 7 8 9 10 10 11 12 12 12 16 34 14 15 15 15 14 14 14 14 13 13 12 11 10 9 9 2 9 12 13 12 13 14 14 14 15 15 16 16
2 3 3 4 6 8 8 8 9 10 11 12 12 14 30 13 13 14 14 14 14 14 12 13 12 12 11 11 11 10 10 9 6 5 10 11 12 13 13 14 14 12 15
3 4 4 5 6 8 8 8 9 10 11 11 12 12 13 13 13 13 13 13 14 13 13 12 15 15 14 13 12 11 11 9 8 7 4 7 9 10 10 11 13 13 12
3 3 4 4 5 6 7 8 8 11 11 11 11 11 12 12 13 14 13 13 13 13 14 14 15 20 18 17 14 13 13 13 10 10 10 5 4 6 6 7 9 12 11
3 2 3 3 3 4 6 7 8 9 9 10 10 10 11 11 12 13 13 12 13 14 15 15 14 21 24 27 25 25 25 25 21 17 10 11 13 13 9 6 5 5 6
2 3 3 2 3 3 4 6 7 8 8 8 9 10 10 10 11 11 12 13 12 13 16 14 18 23 26 23 27 29 28 28 23 24 14 14 13 11 10 12 14 9 10
Wind_Direction
309 308 305 299 298 297 295 294 290 289 287 287 289 287 288 291 294 292 287 293 247 245 251 272 243 250 263 252 173 177 171 166 166 86 108 157 159 159 166 163 163 171 167
312 308 306 304 306 302 297 293 293 293 288 288 289 286 288 282 281 278 285 288 257 234 236 256 275 254 292 203 173 178 174 166 159 152 140 157 163 166 166 160 166 169 172
311 307 307 304 305 301 300 298 298 294 292 289 289 285 285 283 282 278 274 276 290 260 245 258 283 267 262 233 185 177 171 162 158 153 148 163 127 163 150 125 152 146 162
310 309 308 308 307 302 303 299 299 297 294 291 287 284 283 280 281 274 274 280 276 281 257 246 262 283 266 291 185 179 166 151 154 161 160 161 156 163 166 157 156 165 157
313 312 308 309 306 303 304 304 300 296 294 293 290 285 282 278 271 282 268 269 271 275 274 261 268 289 265 288 177 173 161 152 159 159 160 159 159 158 167 167 172 148 60
310 310 311 310 309 310 307 307 305 300 299 295 289 285 282 276 276 271 272 264 266 269 272 260 261 271 292 294 171 168 168 159 159 154 166 167 163 168 157 161 155 160 174
315 315 313 314 313 313 312 310 307 303 301 294 289 284 280 275 275 274 270 265 264 261 261 271 252 267 294 299 179 173 176 170 165 163 168 176 163 173 159 160 169 171 166
318 316 319 317 315 314 313 313 305 303 303 295 290 283 277 274 273 271 265 262 257 255 258 261 264 267 274 277 218 177 177 176 172 171 170 172 167 164 164 163 159 122 80
321 321 319 318 315 313 312 312 306 310 306 300 290 284 269 268 270 269 262 259 253 250 253 245 246 248 252 267 252 174 173 180 187 174 174 164 162 165 158 141 150 155 132
325 318 317 315 311 308 309 312 311 307 306 306 302 292 275 261 265 267 259 250 251 248 239 242 225 232 245 256 252 171 172 175 170 145 163 159 157 161 160 170 160 169 162
319 317 316 312 308 308 315 313 313 313 310 307 302 308 298 269 260 262 255 245 246 252 236 232 217 230 238 242 245 186 174 156 153 147 149 151 156 160 167 172 175 169 170
322 317 313 309 315 322 319 315 319 316 314 314 314 309 317 310 311 258 253 245 240 242 249 239 236 234 238 232 228 190 158 153 156 154 158 164 167 171 178 175 177 178 184
319 311 311 318 326 328 325 320 325 322 322 320 316 320 318 316 316 319 285 246 242 243 231 241 243 249 252 224 205 181 156 161 163 163 171 174 177 165 163 163 166 121 124
312 315 323 330 331 333 329 325 326 328 324 324 328 325 314 323 325 321 324 304 283 247 247 248 245 247 256 216 187 168 169 170 172 174 174 168 158 160 169 167 165 173 173
316 321 329 332 333 332 339 330 334 336 336 333 336 317 326 323 313 309 311 308 298 280 232 227 229 233 242 201 183 179 175 172 174 171 173 163 166 165 172 171 171 174 190
323 330 334 334 336 336 336 334 340 351 355 352 351 338 338 321 316 324 320 307 291 272 262 236 220 225 214 188 177 177 177 176 175 173 173 167 168 170 167 173 169 182 186
316 326 334 340 339 338 338 339 336 344 356 1 360 356 353 345 345 340 332 328 1 281 235 236 221 213 195 182 175 172 178 181 168 177 174 172 171 173 164 171 177 179 187
314 340 346 337 336 337 338 338 338 343 345 348 354 357 7 4 5 5 8 18 20 23 16 358 310 208 185 181 174 171 176 171 176 176 174 175 175 171 171 174 185 181 183
348 350 345 335 335 338 338 341 344 345 349 349 346 353 9 7 11 16 22 25 13 15 6 3 353 354 355 311 171 172 172 174 179 176 176 172 176 177 178 177 182 185 181
338 355 353 339 337 344 347 349 349 351 351 354 357 346 3 358 10 12 13 13 11 9 6 2 359 5 4 2 350 189 168 167 178 178 178 177 177 182 179 179 182 182 192
322 344 351 344 346 346 347 349 349 349 352 353 355 346 14 10 5 6 5 8 5 6 2 4 0 11 10 6 3 359 336 177 181 182 181 182 179 185 186 182 183 188 189
338 330 344 339 340 348 348 349 349 352 353 353 351 351 6 8 7 5 5 1 359 8 0 6 8 7 17 15 11 12 15 12 5 205 192 184 186 188 183 179 184 186 187
18 8 11 358 348 346 352 353 355 355 351 354 353 353 360 1 2 2 2 357 3 4 1 5 16 14 16 24 22 21 20 6 340 324 192 179 182 184 182 182 176 177 183
13 14 30 12 350 355 354 351 352 358 351 352 355 355 355 356 356 358 358 355 1 2 7 10 17 22 19 21 25 26 25 18 9 9 18 71 105 149 163 174 183 187 181
14 10 37 22 339 345 347 349 353 353 352 352 350 354 353 353 356 357 354 359 358 2 5 8 9 21 25 24 24 31 32 33 31 25 29 45 58 58 65 73 74 102 140
41 7 21 16 1 340 349 350 347 348 349 349 347 346 349 353 353 353 352 357 357 355 4 7 6 14 28 27 26 27 34 39 37 34 35 42 47 46 52 61 66 66 68